K5OBH Weather Reports


time (UTC)temp
C
wind
direction
speed
KPH
gust
KPH
rain 1hr
cm
rain 24hr
cm
rain mn
cm
humidity
%
barometer
mb
20260510011507 25 196 8.0 9.7 0.00 0.00 0.00 54 1008.3
20260510011002 25 214 8.0 9.7 0.00 0.00 0.00 54 1008.4
20260510010500 25 231 3.2 3.2 0.00 0.00 0.00 54 1008.2
20260510005957 25 324 0.0 1.6 0.00 0.00 0.00 54 1008.3
20260510005452 25 160 3.2 8.0 0.00 0.00 0.00 54 1007.8
20260510004950 25 152 4.8 11.3 0.00 0.00 0.00 54 1007.7
20260510004447 25 160 4.8 9.7 0.00 0.00 0.00 53 1007.9
20260510003945 25 171 8.0 9.7 0.00 0.00 0.00 52 1007.8
20260510003442 26 224 3.2 4.8 0.00 0.00 0.00 52 1007.8
20260510002942 26 89 3.2 4.8 0.00 0.00 0.00 52 1007.6
20260510002438 26 115 6.4 11.3 0.00 0.00 0.00 51 1007.9
20260510001935 26 184 8.0 9.7 0.00 0.00 0.00 49 1008.1
20260510001432 26 183 4.8 4.8 0.00 0.00 0.00 49 1007.8
20260510000930 26 112 1.6 9.7 0.00 0.00 0.00 48 1007.7
20260510000426 26 118 4.8 12.9 0.00 0.00 0.00 47 1007.8
20260509235923 27 12 4.8 14.5 0.00 0.00 0.00 47 1007.6
20260509235420 27 87 4.8 16.1 0.00 0.00 0.00 46 1007.6
20260509234916 27 150 4.8 9.7 0.00 0.00 0.00 46 1007.7
20260509234413 27 105 6.4 8.0 0.00 0.00 0.00 45 1007.7
20260509233911 27 123 3.2 11.3 0.00 0.00 0.00 44 1007.8
20260509233408 27 166 12.9 17.7 0.00 0.00 0.00 44 1007.9
20260509232904 27 249 9.7 11.3 0.00 0.00 0.00 45 1007.7
20260509232402 28 126 6.4 17.7 0.00 0.00 0.00 44 1007.8
20260509231858 28 137 12.9 14.5 0.00 0.00 0.00 43 1007.7
20260509231355 28 145 8.0 16.1 0.00 0.00 0.00 43 1008.0
20260509230853 28 142 17.7 24.1 0.00 0.00 0.00 42 1008.1
20260509230349 28 111 8.0 16.1 0.00 0.00 0.00 42 1008.0
20260509225845 28 129 12.9 16.1 0.00 0.00 0.00 42 1008.2
20260509225342 28 163 11.3 17.7 0.00 0.00 0.00 42 1008.2
20260509224837 28 204 8.0 14.5 0.00 0.00 0.00 42 1008.1
20260509224333 29 124 12.9 17.7 0.00 0.00 0.00 41 1008.5
20260509223831 28 124 9.7 14.5 0.00 0.00 0.00 41 1008.2
20260509223327 28 71 3.2 9.7 0.00 0.00 0.00 41 1008.3
20260509222825 29 156 8.0 12.9 0.00 0.00 0.00 41 1008.6
20260509222320 29 224 11.3 12.9 0.00 0.00 0.00 41 1008.5
20260509221816 29 71 0.0 9.7 0.00 0.00 0.00 41 1008.9
20260509221314 28 162 8.0 12.9 0.00 0.00 0.00 42 1008.5
20260509220814 28 165 8.0 11.3 0.00 0.00 0.00 41 1008.6
20260509220310 28 35 1.6 9.7 0.00 0.00 0.00 41 1008.6
20260509215806 28 74 1.6 14.5 0.00 0.00 0.00 44 1008.5
20260509215305 30 183 9.7 12.9 0.00 0.00 0.00 40 1008.8
20260509214759 28 209 4.8 16.1 0.00 0.00 0.00 41 1008.5
20260509214257 29 140 8.0 14.5 0.00 0.00 0.00 42 1008.5
20260509213754 29 148 4.8 9.7 0.00 0.00 0.00 41 1009.0
20260509213249 28 310 0.0 4.8 0.00 0.00 0.00 42 1008.8
20260509212747 29 146 4.8 9.7 0.00 0.00 0.00 41 1009.0
20260509212244 29 255 3.2 3.2 0.00 0.00 0.00 41 1008.9
20260509211739 29 202 8.0 12.9 0.00 0.00 0.00 41 1009.1
20260509211236 29 125 8.0 17.7 0.00 0.00 0.00 42 1009.2
20260509210732 28 75 1.6 8.0 0.00 0.00 0.00 39 1009.3
20260509210231 28 179 1.6 9.7 0.00 0.00 0.00 41 1009.3
20260509205730 28 187 6.4 12.9 0.00 0.00 0.00 41 1009.2
20260509205230 28 235 1.6 9.7 0.00 0.00 0.00 40 1009.2
20260509204726 28 183 9.7 12.9 0.00 0.00 0.00 40 1009.2
20260509204223 28 179 8.0 14.5 0.00 0.00 0.00 40 1009.4
20260509203718 28 81 3.2 12.9 0.00 0.00 0.00 41 1009.1
20260509203217 28 207 8.0 9.7 0.00 0.00 0.00 40 1009.3
20260509202712 29 339 0.0 1.6 0.00 0.00 0.00 39 1009.3
20260509202207 28 201 6.4 9.7 0.00 0.00 0.00 38 1009.3
20260509201703 28 315 0.0 12.9 0.00 0.00 0.00 39 1009.6
20260509201200 28 197 8.0 11.3 0.00 0.00 0.00 40 1009.6
20260509200656 28 161 9.7 11.3 0.00 0.00 0.00 41 1009.7
20260509200151 30 182 4.8 9.7 0.00 0.00 0.00 38 1009.8
20260509195647 29 313 1.6 3.2 0.00 0.00 0.00 36 1009.8
20260509195143 28 4 1.6 8.0 0.00 0.00 0.00 39 1009.9
20260509194643 28 233 3.2 4.8 0.00 0.00 0.00 39 1009.8
20260509194140 27 257 1.6 9.7 0.00 0.00 0.00 43 1010.0
20260509193636 28 169 6.4 8.0 0.00 0.00 0.00 40 1010.2
20260509193131 29 18 3.2 8.0 0.00 0.00 0.00 42 1010.1
20260509192628 29 284 1.6 3.2 0.00 0.00 0.00 36 1010.0
20260509192124 28 0 0.0 8.0 0.00 0.00 0.00 38 1010.0
20260509191623 27 340 4.8 4.8 0.00 0.00 0.00 43 1010.2
20260509191120 28 15 3.2 8.0 0.00 0.00 0.00 41 1010.4
20260509190617 27 209 1.6 3.2 0.00 0.00 0.00 39 1010.3
20260509190114 27 221 4.8 9.7 0.00 0.00 0.00 42 1010.4
20260509185612 27 353 3.2 4.8 0.00 0.00 0.00 42 1010.4
20260509185108 27 147 8.0 16.1 0.00 0.00 0.00 45 1010.5
20260509184606 27 185 6.4 12.9 0.00 0.00 0.00 43 1010.6
20260509184102 27 194 6.4 8.0 0.00 0.00 0.00 43 1010.5
20260509183558 27 126 1.6 8.0 0.00 0.00 0.00 44 1010.6
20260509183054 27 124 1.6 3.2 0.00 0.00 0.00 46 1010.7
20260509182550 27 250 1.6 4.8 0.00 0.00 0.00 44 1010.7
20260509182047 26 223 6.4 16.1 0.00 0.00 0.00 47 1010.8
20260509181546 27 153 6.4 11.3 0.00 0.00 0.00 46 1010.7
20260509181042 26 214 8.0 8.0 0.00 0.00 0.00 44 1010.7
20260509180538 27 210 4.8 12.9 0.00 0.00 0.00 42 1010.7
20260509180036 27 171 4.8 4.8 0.00 0.00 0.00 44 1011.0
20260509175531 26 328 1.6 3.2 0.00 0.00 0.00 39 1011.1
20260509175028 26 113 3.2 8.0 0.00 0.00 0.00 45 1011.1
20260509174525 27 142 6.4 9.7 0.00 0.00 0.00 43 1011.5
20260509174020 26 351 0.0 3.2 0.00 0.00 0.00 48 1011.5
20260509173514 26 220 6.4 9.7 0.00 0.00 0.00 50 1011.2
20260509173011 26 69 1.6 12.9 0.00 0.00 0.00 48 1011.6
20260509172508 26 215 4.8 11.3 0.00 0.00 0.00 49 1011.7
20260509172004 26 193 3.2 12.9 0.00 0.00 0.00 54 1011.9
20260509171459 26 173 4.8 11.3 0.00 0.00 0.00 53 1011.8
20260509170956 26 225 6.4 8.0 0.00 0.00 0.00 57 1012.1
20260509170452 25 44 1.6 8.0 0.00 0.00 0.00 55 1012.0
20260509165948 25 123 1.6 4.8 0.00 0.00 0.00 56 1012.0
20260509165447 25 260 1.6 8.0 0.00 0.00 0.00 58 1011.9
20260509164943 24 218 4.8 9.7 0.00 0.00 0.00 60 1011.9
20260509164439 24 199 11.3 14.5 0.00 0.00 0.00 60 1012.1
20260509163935 24 204 11.3 14.5 0.00 0.00 0.00 64 1012.0
20260509163433 25 119 3.2 8.0 0.00 0.00 0.00 66 1011.8
20260509162931 24 174 8.0 11.3 0.00 0.00 0.00 60 1012.2
20260509162431 23 190 8.0 9.7 0.00 0.00 0.00 64 1011.9
20260509161926 23 148 6.4 8.0 0.00 0.00 0.00 61 1012.1
20260509161423 23 242 4.8 12.9 0.00 0.00 0.00 68 1012.2
20260509160918 24 177 11.3 14.5 0.00 0.00 0.00 61 1012.2
20260509160414 23 126 4.8 14.5 0.00 0.00 0.00 67 1012.0
20260509155909 23 205 11.3 11.3 0.00 0.00 0.00 65 1012.1
20260509155406 23 196 8.0 14.5 0.00 0.00 0.00 70 1012.0
20260509154903 23 178 8.0 11.3 0.00 0.00 0.00 70 1012.0
20260509154359 22 190 8.0 11.3 0.00 0.00 0.00 74 1011.9
20260509153856 23 161 8.0 11.3 0.00 0.00 0.00 73 1011.9
20260509153353 22 152 6.4 11.3 0.00 0.00 0.00 73 1012.0
20260509152850 22 203 4.8 9.7 0.00 0.00 0.00 74 1011.9
20260509152346 22 156 9.7 14.5 0.00 0.00 0.00 76 1011.8
20260509151843 22 183 8.0 12.9 0.00 0.00 0.00 75 1011.9
20260509151339 22 142 4.8 12.9 0.00 0.00 0.00 72 1012.1
20260509150838 22 139 3.2 9.7 0.00 0.00 0.00 72 1012.0
20260509150335 22 169 6.4 9.7 0.00 0.00 0.00 73 1012.1
20260509145832 23 157 8.0 9.7 0.00 0.00 0.00 68 1011.9
20260509145327 23 139 6.4 9.7 0.00 0.00 0.00 67 1011.7
20260509144823 23 356 4.8 9.7 0.00 0.00 0.00 70 1011.5
20260509144321 22 333 1.6 8.0 0.00 0.00 0.00 74 1011.2
20260509143817 22 83 4.8 8.0 0.00 0.00 0.00 75 1011.6
20260509143315 21 56 1.6 9.7 0.00 0.00 0.00 81 1011.4
20260509142811 21 16 1.6 3.2 0.00 0.00 0.00 83 1011.2
20260509142307 20 18 1.6 1.6 0.00 0.00 0.00 85 1011.4
20260509141802 20 11 1.6 1.6 0.00 0.00 0.00 85 1011.4
20260509141300 20 1 3.2 3.2 0.00 0.00 0.00 84 1011.1
20260509140757 20 36 3.2 4.8 0.00 0.00 0.00 83 1011.5
20260509140254 20 15 3.2 4.8 0.00 0.00 0.00 84 1011.4
20260509135752 20 334 3.2 3.2 0.00 0.00 0.00 85 1011.4
20260509135249 20 63 3.2 4.8 0.00 0.00 0.00 86 1011.6
20260509134746 19 356 3.2 3.2 0.00 0.00 0.00 88 1011.6
20260509134243 19 14 1.6 1.6 0.00 0.00 0.00 86 1011.2
20260509133740 19 38 1.6 3.2 0.00 0.00 0.00 86 1011.4
20260509133237 18 10 0.0 1.6 0.00 0.00 0.00 87 1011.5
20260509132736 18 4 0.0 0.0 0.00 0.00 0.00 87 1011.2
20260509132234 18 22 1.6 1.6 0.00 0.00 0.00 86 1011.2
20260509131730 18 349 0.0 0.0 0.00 0.00 0.00 88 1011.1
20260509131227 18 339 1.6 1.6 0.00 0.00 0.00 89 1011.0
20260509130723 17 336 0.0 0.0 0.00 0.00 0.00 89 1011.1
20260509130219 17 13 0.0 0.0 0.00 0.00 0.00 91 1011.0
20260509125716 16 13 0.0 1.6 0.00 0.00 0.00 95 1010.8
20260509125213 16 342 1.6 1.6 0.00 0.00 0.00 96 1010.9
20260509124709 16 345 0.0 0.0 0.00 0.00 0.00 96 1010.5
20260509124206 15 337 0.0 0.0 0.00 0.00 0.00 98 1010.7
20260509123704 15 337 0.0 0.0 0.00 0.00 0.00 98 1010.8
20260509123201 15 337 0.0 0.0 0.00 0.00 0.00 98 1010.8
20260509122656 15 337 0.0 0.0 0.00 0.00 0.00 98 1010.6
20260509122153 14 337 0.0 0.0 0.00 0.00 0.00 98 1010.4
20260509121650 13 324 0.0 0.0 0.00 0.00 0.00 98 1010.6
20260509121148 13 324 0.0 0.0 0.00 0.00 0.00 98 1010.5
20260509120646 13 323 0.0 0.0 0.00 0.00 0.00 98 1010.4
20260509120144 13 230 1.6 1.6 0.00 0.00 0.00 98 1010.8
20260509115641 13 299 0.0 0.0 0.00 0.00 0.00 98 1010.3
20260509115138 13 314 0.0 0.0 0.00 0.00 0.00 98 1010.5
20260509114636 13 306 0.0 0.0 0.00 0.00 0.00 98 1010.5
20260509114135 13 336 0.0 0.0 0.00 0.00 0.00 98 1010.3
20260509113633 13 351 0.0 0.0 0.00 0.00 0.00 98 1010.2
20260509113130 13 351 0.0 0.0 0.00 0.00 0.00 98 1010.1
20260509112626 13 351 0.0 0.0 0.00 0.00 0.00 98 1009.9
20260509112124 13 354 0.0 0.0 0.00 0.00 0.00 98 1010.0
20260509111620 13 339 0.0 1.6 0.00 0.00 0.00 98 1009.9
20260509111117 13 347 0.0 0.0 0.00 0.00 0.00 98 1009.9
20260509110614 13 355 0.0 1.6 0.00 0.00 0.00 98 1009.9
20260509110112 13 1 1.6 1.6 0.00 0.00 0.00 98 1009.8
20260509105610 13 359 0.0 0.0 0.00 0.00 0.00 98 1010.0
20260509105107 13 356 0.0 1.6 0.00 0.00 0.00 98 1009.8
20260509104604 13 2 0.0 3.2 0.00 0.00 0.00 98 1009.9
20260509104100 13 355 0.0 1.6 0.00 0.00 0.00 98 1009.6
20260509103558 13 353 0.0 0.0 0.00 0.00 0.00 98 1009.9
20260509103056 13 339 0.0 0.0 0.00 0.00 0.00 98 1010.0
20260509102553 13 339 0.0 0.0 0.00 0.00 0.00 98 1010.1
20260509102050 13 339 0.0 0.0 0.00 0.00 0.00 98 1010.1
20260509101546 13 339 0.0 0.0 0.00 0.00 0.00 98 1010.3
20260509101043 13 348 0.0 0.0 0.00 0.00 0.00 98 1010.4
20260509100540 13 357 0.0 3.2 0.00 0.00 0.00 98 1010.4
20260509100038 14 345 1.6 1.6 0.00 0.00 0.00 98 1010.5
20260509095534 14 340 0.0 3.2 0.00 0.00 0.00 98 1010.7
20260509095032 14 325 1.6 3.2 0.00 0.00 0.00 98 1010.5
20260509094528 14 332 0.0 0.0 0.00 0.00 0.00 98 1010.6
20260509094025 14 336 0.0 1.6 0.00 0.00 0.00 98 1010.7
20260509093524 14 8 3.2 3.2 0.00 0.00 0.00 98 1010.4
20260509093021 14 357 0.0 0.0 0.00 0.00 0.00 98 1010.4
20260509092519 14 331 0.0 0.0 0.00 0.00 0.00 98 1010.4
20260509092017 14 332 0.0 0.0 0.00 0.00 0.00 98 1010.2
20260509091514 14 332 0.0 0.0 0.00 0.00 0.00 98 1010.4
20260509091010 14 336 0.0 0.0 0.00 0.00 0.00 98 1010.4
20260509090508 14 337 0.0 0.0 0.00 0.00 0.00 98 1010.3
20260509090006 14 336 0.0 0.0 0.00 0.00 0.00 98 1010.4
20260509085502 14 336 0.0 0.0 0.00 0.00 0.00 98 1010.4
20260509084958 15 336 0.0 0.0 0.00 0.00 0.00 98 1010.5
20260509084455 15 338 0.0 0.0 0.00 0.00 0.00 98 1010.4
20260509083953 15 338 0.0 0.0 0.00 0.00 0.00 98 1010.4
20260509083450 15 338 0.0 0.0 0.00 0.00 0.00 98 1010.6
20260509082946 15 340 0.0 0.0 0.00 0.00 0.00 98 1010.7
20260509082444 15 334 0.0 0.0 0.00 0.00 0.00 98 1010.6
20260509081941 15 342 0.0 0.0 0.00 0.00 0.00 98 1010.6
20260509081433 15 342 0.0 0.0 0.00 0.00 0.00 98 1010.7
20260509080930 15 342 0.0 0.0 0.00 0.00 0.00 98 1010.7
20260509080428 15 333 1.6 1.6 0.00 0.00 0.00 98 1010.6
20260509075926 15 333 0.0 0.0 0.00 0.00 0.00 98 1010.7
20260509075422 15 355 0.0 0.0 0.00 0.00 0.00 98 1011.0
20260509074920 15 335 0.0 0.0 0.00 0.00 0.00 98 1010.9
20260509074418 15 335 0.0 0.0 0.00 0.00 0.00 98 1011.0
20260509073914 15 334 0.0 0.0 0.00 0.00 0.00 98 1010.8
20260509073410 16 321 0.0 0.0 0.00 0.00 0.00 98 1010.7
20260509072907 16 321 1.6 1.6 0.00 0.00 0.00 98 1010.8
20260509072403 16 321 0.0 0.0 0.00 0.00 0.00 98 1010.8
20260509071900 16 321 0.0 0.0 0.00 0.00 0.00 97 1010.9
20260509071357 16 320 0.0 0.0 0.00 0.00 0.00 98 1011.1
20260509070855 16 291 1.6 1.6 0.00 0.00 0.00 98 1010.8
20260509070351 16 320 0.0 0.0 0.00 0.00 0.00 98 1011.1
20260509065847 16 331 0.0 1.6 0.00 0.00 0.00 98 1011.1
20260509065343 16 342 0.0 0.0 0.00 0.00 0.00 98 1010.8
20260509064839 16 331 0.0 0.0 0.00 0.00 0.00 98 1011.0
20260509064337 16 330 0.0 1.6 0.00 0.00 0.00 97 1011.4
20260509063835 16 329 0.0 1.6 0.00 0.00 0.00 97 1011.1
20260509063330 16 313 0.0 0.0 0.00 0.00 0.00 96 1011.0
20260509062828 16 313 0.0 0.0 0.00 0.00 0.00 96 1011.4
20260509062325 16 314 0.0 0.0 0.00 0.00 0.00 97 1011.5
20260509061822 16 327 0.0 0.0 0.00 0.00 0.00 97 1011.2
20260509061320 16 327 0.0 0.0 0.00 0.00 0.00 97 1011.4
20260509060817 16 313 0.0 0.0 0.00 0.00 0.00 96 1011.7
20260509060314 17 283 0.0 1.6 0.00 0.00 0.00 95 1011.5
20260509055809 16 290 0.0 0.0 0.00 0.00 0.00 96 1011.9
20260509055306 17 335 0.0 0.0 0.00 0.00 0.00 95 1011.6
20260509054802 17 0 0.0 0.0 0.00 0.00 0.00 94 1011.7
20260509054258 17 10 0.0 1.6 0.00 0.00 0.00 95 1011.6
20260509053757 17 353 0.0 0.0 0.00 0.00 0.00 95 1011.7
20260509053254 17 359 0.0 1.6 0.00 0.00 0.00 96 1011.5
20260509052752 17 358 0.0 0.0 0.00 0.00 0.00 96 1011.5
20260509052249 17 9 1.6 3.2 0.00 0.00 0.00 96 1011.4
20260509051746 17 26 3.2 4.8 0.00 0.00 0.00 96 1011.6
20260509051245 17 3 3.2 4.8 0.00 0.00 0.00 96 1011.1
20260509050741 17 1 3.2 3.2 0.00 0.00 0.00 96 1011.0
20260509050237 17 24 4.8 8.0 0.00 0.00 0.00 96 1011.1
20260509045735 17 357 1.6 9.7 0.00 0.48 0.48 96 1011.1
20260509045231 17 13 4.8 8.0 0.00 0.48 0.48 97 1010.7
20260509044729 16 63 3.2 9.7 0.00 0.48 0.48 97 1011.0
20260509044227 16 56 1.6 3.2 0.00 0.48 0.48 98 1010.8
20260509043722 17 352 1.6 1.6 0.00 0.48 0.48 97 1010.6
20260509043219 17 349 1.6 1.6 0.00 0.48 0.48 97 1010.7
20260509042715 17 18 1.6 1.6 0.00 0.48 0.48 97 1010.4
20260509042211 17 344 0.0 1.6 0.00 0.48 0.48 97 1010.5
20260509041708 17 6 3.2 3.2 0.00 0.48 0.48 96 1010.3
20260509041205 17 344 1.6 1.6 0.00 0.48 0.48 97 1010.3
20260509040704 17 329 0.0 1.6 0.00 0.48 0.48 96 1010.3
20260509040200 17 330 0.0 1.6 0.00 0.48 0.48 95 1010.5
20260509035657 18 310 0.0 0.0 0.00 0.48 0.48 94 1010.5
20260509035153 17 265 1.6 1.6 0.00 0.48 0.48 94 1010.4
20260509034651 17 314 0.0 0.0 0.00 0.48 0.48 93 1010.5
20260509034148 18 311 0.0 0.0 0.00 0.48 0.48 93 1010.4
20260509033645 18 314 0.0 0.0 0.00 0.48 0.48 92 1010.4
20260509033142 18 251 1.6 1.6 0.00 0.48 0.48 91 1010.3
20260509032639 18 247 3.2 3.2 0.00 0.48 0.48 91 1010.2
20260509032136 18 305 0.0 0.0 0.00 0.48 0.48 93 1010.2
20260509031634 18 325 0.0 0.0 0.00 0.48 0.48 93 1010.1
20260509031131 18 333 0.0 0.0 0.00 0.48 0.48 91 1010.0
20260509030630 18 309 0.0 0.0 0.00 0.48 0.48 90 1010.0
20260509030126 18 176 3.2 3.2 0.00 0.48 0.48 90 1009.6
20260509025622 18 218 1.6 3.2 0.00 0.48 0.48 92 1009.8
20260509025118 18 288 1.6 1.6 0.00 0.48 0.48 92 1009.7
20260509024614 18 349 1.6 1.6 0.00 0.48 0.48 90 1009.6
20260509024110 18 198 4.8 4.8 0.00 0.48 0.48 89 1009.2
20260509023608 18 351 0.0 1.6 0.00 0.48 0.48 91 1009.3
20260509023105 18 345 3.2 3.2 0.00 0.48 0.48 89 1009.2
20260509022601 18 251 3.2 3.2 0.00 0.48 0.48 91 1009.2
20260509022059 19 333 1.6 1.6 0.00 0.48 0.48 89 1009.1
20260509021556 19 279 0.0 1.6 0.00 0.48 0.48 86 1009.0
20260509021053 20 142 3.2 3.2 0.00 0.48 0.48 85 1009.2
20260509020551 20 248 3.2 3.2 0.00 0.48 0.48 85 1009.2
20260509020047 20 260 0.0 3.2 0.00 0.48 0.48 85 1009.2
20260509015546 20 195 1.6 3.2 0.00 0.48 0.48 84 1009.3
20260509015043 20 218 4.8 4.8 0.00 0.48 0.48 85 1009.0
20260509014539 20 234 4.8 4.8 0.00 0.48 0.48 85 1009.0
20260509014036 19 217 3.2 4.8 0.00 0.48 0.48 85 1008.9
20260509013533 19 177 3.2 3.2 0.00 0.48 0.48 88 1008.6
20260509013028 19 206 3.2 3.2 0.00 0.48 0.48 89 1008.5
20260509012525 19 108 3.2 3.2 0.00 0.48 0.48 88 1008.2
20260509012022 19 5 0.0 0.0 0.00 0.48 0.48 86 1008.1